Flag for India Weather past 2 weeks in Jaipur, Rajasthan, India

Now
88 °F

Broken clouds.


Feels Like: 100 °F
Forecast: 81 / 91 °F
Wind: 5 mph from North

Location: Jaipur / Sanganer

Current Time: Aug 5, 2015 at 2:20:27 PM

Latest Report: Aug 5, 2015 at 1:00 PM


Visibility: 2 mi

Pressure: 29.59 "Hg

Humidity: 70%

Dew point: 77 °F

Location of JaipurLocation

Historic Weather in Jaipur — Graph

°F

Jaipur temperature yesterday

Maximum temperature yesterday: 91 °F (at 4:00 PM)
Minimum temperature yesterday: 79 °F (at 6:00 AM)
Average temperature yesterday: 85 °F

Past Weeks' High & Low Weather Summary

 TemperatureHumidityPressure
High95 °F (Jul 22, 4:00 PM)100% (Jul 26, 2:00 PM)29.77 "Hg (Jul 26, 2:00 PM)
Low73 °F (Jul 27, 2:00 AM)53% (Jul 22, 4:00 PM)29.42 "Hg (Jul 26, 4:00 PM)
Average82 °F83%29.61 "Hg
* Reported Jul 21 12:30 PM — Aug 5 1:00 PM, Jaipur, Weather by CustomWeather, © 2015

Note: Actual official high and low records may vary slightly from our data, if they occured in-between our weather recording intervals... More about our weather records

Advertising

Jaipur weather history for previous 24 hours

 ConditionsComfort  
Time TempWeatherWind HumidityBarometerVisibility
1:00 PM
Wed, Aug 5
88 °FBroken clouds.5 mph70%29.59 "Hg1 mi
12:00 PM88 °FBroken clouds.5 mph70%29.62 "Hg1 mi
11:00 AM84 °FBroken clouds.5 mph79%29.62 "Hg1 mi
10:00 AM82 °FBroken clouds.6 mph79%29.62 "Hg1 mi
9:00 AM82 °FBroken clouds.7 mph79%29.62 "Hg1 mi
8:00 AM82 °FFog.6 mph74%29.62 "Hg1 mi
7:00 AM81 °FFog.8 mph79%29.59 "Hg1 mi
6:00 AM81 °FFog.7 mph84%29.59 "Hg1 mi
5:00 AM82 °FFog.5 mph79%29.56 "Hg1 mi
4:30 AM81 °FFog.3 mph89%29.56 "Hg1 mi
4:00 AM81 °FPartly cloudy.No wind94%29.56 "Hg1 mi
3:00 AM81 °FPartly cloudy.No wind94%29.56 "Hg1 mi
2:00 AM84 °FPassing clouds.6 mph84%29.59 "Hg1 mi
1:00 AM84 °FPassing clouds.3 mph79%29.62 "Hg1 mi
12:00 AM84 °FPassing clouds.5 mph84%29.62 "Hg1 mi
11:00 PM
Tue, Aug 4
84 °FPassing clouds.6 mph84%29.59 "Hg2 mi
10:00 PM86 °FPassing clouds.5 mph79%29.62 "Hg2 mi
9:00 PM88 °FPassing clouds.5 mph70%29.62 "Hg2 mi
8:00 PM88 °FPassing clouds.6 mph75%29.59 "Hg2 mi
7:00 PM88 °FScattered clouds.8 mph70%29.56 "Hg2 mi
6:00 PM90 °FScattered clouds.9 mph71%29.56 "Hg2 mi
5:00 PM90 °FScattered clouds.10 mph71%29.56 "Hg2 mi
4:00 PM91 °FScattered clouds.8 mph67%29.59 "Hg2 mi
3:00 PM90 °FScattered clouds.7 mph71%29.59 "Hg2 mi
2:00 PM90 °FScattered clouds.6 mph67%29.62 "Hg2 mi
Weather by CustomWeather, © 2015

See weather overviewHow to use our weather pages